Location: Newark
(52.2090°N, 4.1550°W)
Time: 11:59:46
(UTC+00:00)

Explorer 7 - Pass Details

Date: 29 September 2019
Orbit: 485 x 680 km, 50.3° (Epoch: 14 October)

Event Time Altitude Azimuth Distance (km) Brightness Sun altitude
Rises 21:35:17 0° 256° (WSW) 2,754 10.8 -31.2°
Reaches altitude 10° 21:37:28 10° 254° (WSW) 1,891 9.8 -31.5°
Enters shadow 21:37:35 11° 254° (WSW) 1,851 9.8 -31.5°
Maximum altitude 21:41:46 67° 173° (S) 660 - -31.9°
Drops below altitude 10° 21:46:22 10° 91° (E) 2,016 - -32.4°
Sets 21:48:46 0° 88° (E) 2,954 - -32.7°
